Regional Weather Roundup
Issued by NWS Albany, NY

Home | Current Version | Previous Version | Graphics & Text | Print | Product List | Glossary Off
Versions: 1 2 3 4 5 6 7 8 9 10 11 12 13 14 15 16 17 18 19 20 21 22 23 24 25 26 27 28 29 30 31 32 33 34 35 36 37 38 39 40 41 42 43 44 45 46 47 48 49 50

000
ASUS41 KALY 290610
RWRALY

NEW YORK STATE HOURLY WEATHER ROUNDUP
NATIONAL WEATHER SERVICE ALBANY NY
200 AM EDT WED JUL 29 2015

NOTE: "FAIR" INDICATES FEW OR NO CLOUDS BELOW 12,000 FEET WITH NO
SIGNIFICANT WEATHER AND/OR NO OBSTRUCTIONS TO VISIBILITY.

NYZ032-033-038>043-046>054-057>066-NYZ062>081-290700-
EAST


CITY           SKY/WX    TMP DP  RH WIND       PRES   REMARKS
ALBANY         PTCLDY    75  62  64 S3        29.97S
GLENS FALLS    PTCLDY    67  65  93 CALM      29.97S
POUGHKEEPSIE   CLEAR     70  67  90 NE5       29.97F
NEWBURGH       CLEAR     73  68  83 CALM      30.00F
MONTGOMERY     CLEAR     69  66  90 CALM      29.98F
WHITE PLAINS   CLEAR     72  68  87 NW5       29.98F
ISLIP          CLEAR     74  71  91 W6        29.95F
NEW YORK CITY  CLEAR     82  69  64 CALM      29.96F
CENTRAL PARK   CLEAR     80  69  69 CALM      30.00F
$$

NYZ005>009-017-018-044>046-055-056-290700-
CENTRAL


CITY           SKY/WX    TMP DP  RH WIND       PRES   REMARKS
FULTON         PTCLDY    64  61  90 S3        29.99S
SYRACUSE       PTCLDY    68  62  81 SE3       30.00R
ROME           CLEAR     65  63  93 E6        30.01S
ELMIRA         PTCLDY    67  66  97 SW3       30.04R
BINGHAMTON     CLEAR     69  62  78 CALM      30.06S
MONTICELLO     CLEAR     64  63  94 N3        30.06S
$$

NYZ026>034-041>043-290700-
NORTH


CITY           SKY/WX    TMP DP  RH WIND       PRES   REMARKS
WATERTOWN      PTCLDY    62  58  86 CALM      29.98R
FORT DRUM      NOT AVBL
MASSENA        PTCLDY    70  62  76 SW6       29.95F
SARANAC LAKE   PTCLDY    59  58  96 CALM      30.03S
PLATTSBURGH    CLEAR     66  66 100 CALM      29.94S FOG
$$

NYZ001>004-010>016-019>021-290700-
WEST


CITY           SKY/WX    TMP DP  RH WIND       PRES   REMARKS
NIAGARA FALLS  PTCLDY    70  63  78 CALM      29.99F
BUFFALO        PTCLDY    72  61  68 S3        30.01S
DUNKIRK        PTCLDY    67  59  75 CALM      30.01S
JAMESTOWN      PTCLDY    66  59  77 CALM      30.08F
WELLSVILLE     PTCLDY    67  62  84 CALM      30.11S
ROCHESTER      MOCLDY    71  66  84 SW3       30.01S
PENN YAN       FOG       70  66  87 SW5       30.04S VSB 1
$$

             KEY
       WCI = WIND CHILL INDEX
       VSB = VISIBILITY
       HX  = HEAT INDEX
$$


USA.gov is the U.S. government's official web portal to all federal, state and local government web resources and services.